CDT,Max TemperatureF,Mean TemperatureF,Min TemperatureF,Max Dew PointF,MeanDew PointF,Min DewpointF,Max Humidity, Mean Humidity, Min Humidity, Max Sea Level PressureIn, Mean Sea Level PressureIn, Min Sea Level PressureIn, Max VisibilityMiles, Mean VisibilityMiles, Min VisibilityMiles, Max Wind SpeedMPH, Mean Wind SpeedMPH, Max Gust SpeedMPH,PrecipitationIn, CloudCover, Events, WindDirDegrees
2013-8-1,87,71,55,69,62,54,100,79,58,30.09,30.01,29.88,10,10,7,22,6,26,0.14,1,Rain,191
2013-8-2,72,67,61,68,63,58,100,85,70,30.05,29.95,29.89,10,9,2,21,6,28,0.15,6,Rain-Thunderstorm,65
2013-8-3,77,67,57,60,57,55,97,69,39,30.21,30.14,30.05,10,10,9,10,4,13,T,3,,69
2013-8-4,78,65,51,66,59,50,100,78,56,30.21,30.12,30.00,10,10,9,21,5,25,0.06,3,Rain-Thunderstorm,145
2013-8-5,84,75,65,71,67,64,100,82,63,30.00,29.91,29.84,10,8,1,28,5,38,0.68,4,Rain-Thunderstorm,207
2013-8-6,86,74,62,71,65,62,100,78,55,29.90,29.85,29.77,10,5,0,17,4,22,0.02,2,Fog-Rain-Thunderstorm,270
2013-8-7,81,71,60,67,62,59,93,74,54,30.00,29.95,29.85,10,10,8,10,4,14,0.00,0,,25
2013-8-8,74,68,61,67,63,59,93,83,73,30.04,30.00,29.97,10,10,9,13,4,17,T,4,Rain,151
2013-8-9,81,70,59,64,61,54,100,70,39,30.15,30.07,30.03,10,5,0,12,4,17,0.00,3,Fog,21
2013-8-10,81,69,56,66,61,55,93,74,54,30.20,30.13,30.04,10,10,9,15,6,20,0.03,4,Rain,141
2013-8-11,84,74,63,69,65,60,93,79,65,30.07,30.03,29.97,10,10,10,17,7,21,0.00,3,Thunderstorm,201
2013-8-12,83,70,57,66,61,57,100,74,47,30.09,30.05,30.02,10,6,0,14,5,16,0.00,1,Fog,17
2013-8-13,82,67,51,59,55,50,100,72,38,30.18,30.14,30.09,10,9,2,12,5,15,0.00,0,,34
2013-8-14,69,62,55,65,58,52,93,82,62,30.19,30.16,30.10,10,9,5,12,6,13,0.21,4,Rain,121
2013-8-15,66,63,60,61,59,57,96,87,71,30.14,30.09,30.06,10,10,6,16,9,21,0.06,8,Rain,124
2013-8-16,75,69,62,61,59,58,90,74,57,30.18,30.16,30.12,10,10,10,17,8,22,T,8,,128
2013-8-17,80,69,58,61,58,57,93,71,48,30.18,30.15,30.10,10,10,10,17,9,24,0.00,3,,146
2013-8-18,81,68,54,63,58,53,100,74,48,30.14,30.09,30.04,10,9,5,18,9,25,0.00,0,,151
2013-8-19,87,75,62,70,66,61,93,75,57,30.03,29.95,29.88,10,9,5,21,10,25,0.00,2,,161
2013-8-20,89,80,71,74,70,67,90,75,57,29.90,29.87,29.84,10,10,9,15,9,20,0.00,1,,181
2013-8-21,90,79,68,75,71,67,91,73,57,29.94,29.91,29.88,10,10,10,32,8,44,0.72,0,Rain,159
2013-8-22,84,76,68,73,69,66,96,84,59,30.10,30.04,29.97,10,8,1,14,4,18,0.67,4,Rain-Thunderstorm,288
2013-8-23,87,77,67,74,70,66,100,81,61,30.07,30.02,29.95,10,9,5,18,8,22,0.00,1,,134
2013-8-24,89,80,71,76,72,68,93,78,63,30.05,29.99,29.94,10,8,2,23,13,29,0.28,3,Rain-Thunderstorm,144
2013-8-25,91,84,76,77,72,69,82,71,60,30.04,30.00,29.96,10,10,10,21,14,26,0.00,0,,183
2013-8-26,92,84,75,75,72,69,82,69,56,30.01,29.95,29.87,10,10,10,22,12,28,0.00,0,,183
2013-8-27,91,83,75,78,72,66,91,69,50,29.88,29.86,29.84,10,10,10,15,8,21,0.00,0,,192
2013-8-28,91,80,68,76,71,66,93,74,50,29.96,29.93,29.89,10,10,10,14,5,17,0.00,0,,136
2013-8-29,92,79,66,76,71,65,94,77,54,29.99,29.92,29.86,10,10,10,15,8,18,0.00,0,,135
2013-8-30,91,80,69,77,73,69,97,75,50,29.91,29.87,29.84,10,10,5,15,6,21,0.00,1,,20
2013-8-31,90,78,66,75,71,66,100,80,59,29.88,29.82,29.76,10,10,7,23,4,28,0.05,0,,173